Air Force Academy, CO

12:37 AM MST on November 18, 2019 (GMT -0700)
Usaf Academy

Weather History for KAFF - May, 2019

Change the Weather History Date:

Friday, May 3, 2019

  Actual Average Record
Temperature  
Mean Temperature 48 °F -  
Max Temperature 63 °F 60 °F 86 °F (2004)
Min Temperature 33 °F 35 °F 19 °F (2008)
Degree Days  
Heating Degree Days 16    
Moisture  
Dew Point 28 °F    
Average Humidity 63    
Maximum Humidity 100    
Minimum Humidity 17    
Precipitation  
Precipitation 0.00 in - - ()
Sea Level Pressure  
Sea Level Pressure 29.95 in    
Wind  
Wind Speed 5 mph (East)    
Max Wind Speed 21 mph    
Max Gust Speed 26 mph    
Visibility 9 miles    
Events Fog    
Averages and records for this station are not official NWS values.
T = Trace of Precipitation, MM = Missing Value Source: NWS Daily Summary

Daily Weather History Graph

Daily Weather History Graph

Search for Another Location

Airport or City:

Astronomy

May. 03, 2019 Rise Set
Actual Time 5:59 AM MDT 7:53 PM MDT
Civil Twilight 5:30 AM MDT 8:22 PM MDT
Nautical Twilight 4:54 AM MDT 8:58 PM MDT
Astronomical Twilight 4:17 AM MDT 9:36 PM MDT
Moon 5:40 AM MDT (5/3) 6:44 PM MDT (5/3)
Length of Visible Light 14h 52m
Length of Day
13h 54m
Waning Crescent, 2% of the Moon is Illuminated
May 3
Waning Crescent
May 4
New
May 11
First Quarter
May 18
Full
May 26
Last Quarter

Hourly Weather History & Observations

Time (MDT) Temp. Windchill Dew Point Humidity Pressure Visibility Wind Dir Wind Speed Gust Speed Precip Events Conditions
12:58 AM 39.2 °F - 35.4 °F 86% 29.99 in 10.0 mi Calm Calm - N/A   Clear
1:19 AM 39.2 °F 37.0 °F 35.6 °F 87% 29.99 in 10.0 mi NNE 3.5 mph - N/A   Partly Cloudy
1:49 AM 39.2 °F - 39.2 °F 100% 29.99 in 10.0 mi Calm Calm - N/A   Overcast
1:58 AM 39.7 °F - 39.6 °F 99% 29.99 in 10.0 mi Calm Calm - N/A   Overcast
2:58 AM 40.1 °F - 40.1 °F 100% 29.96 in 10.0 mi Calm Calm - N/A   Overcast
3:13 AM 39.2 °F - 39.2 °F 100% 29.96 in 10.0 mi Calm Calm - N/A   Overcast
3:43 AM 37.4 °F 34.9 °F 37.4 °F 100% 29.96 in 10.0 mi North 3.5 mph - N/A   Mostly Cloudy
3:58 AM 35.4 °F 32.6 °F 35.2 °F 99% 29.99 in 10.0 mi North 3.5 mph - N/A   Mostly Cloudy
4:13 AM 33.8 °F 28.6 °F 33.8 °F 100% 30.01 in 10.0 mi North 5.8 mph - N/A   Scattered Clouds
4:28 AM 33.8 °F 28.6 °F 33.8 °F 100% 29.99 in 10.0 mi North 5.8 mph - N/A   Mostly Cloudy
4:43 AM 33.8 °F 29.6 °F 33.8 °F 100% 30.00 in 10.0 mi North 4.6 mph - N/A   Overcast
4:58 AM 36.1 °F 33.5 °F 36.1 °F 100% 30.00 in 10.0 mi NNW 3.5 mph - N/A   Overcast
5:16 AM 33.8 °F 30.8 °F 33.8 °F 100% 30.00 in 10.0 mi West 3.5 mph - N/A   Scattered Clouds
5:58 AM 34.3 °F 29.2 °F 34.3 °F 100% 30.01 in 9.0 mi NNW 5.8 mph - N/A   Overcast
6:06 AM 33.8 °F 28.6 °F 33.8 °F 100% 30.00 in 1.0 mi NNW 5.8 mph - N/A   Overcast
6:23 AM 33.8 °F 30.8 °F 33.8 °F 100% 30.01 in 0.5 mi NW 3.5 mph - N/A Fog Fog
6:43 AM 33.8 °F 29.6 °F 33.8 °F 100% 30.02 in 0.1 mi North 4.6 mph - N/A Fog Fog
7:28 AM 33.8 °F 29.6 °F 33.8 °F 100% 30.02 in 1.0 mi Variable 4.6 mph - N/A   Scattered Clouds
7:31 AM 33.8 °F 27.7 °F 33.8 °F 100% 30.04 in 4.0 mi NNW 6.9 mph - N/A   Partly Cloudy
7:34 AM 33.8 °F 28.6 °F 33.8 °F 100% 30.04 in 7.0 mi NNW 5.8 mph - N/A   Partly Cloudy
7:58 AM 37.8 °F 33.3 °F 37.8 °F 100% 30.02 in 10.0 mi North 5.8 mph - N/A   Partly Cloudy
8:58 AM 49.3 °F - 22.1 °F 34% 29.99 in 10.0 mi North 4.6 mph - N/A   Clear
9:58 AM 53.2 °F - 17.4 °F 24% 29.96 in 10.0 mi NE 4.6 mph 17.3 mph N/A   Clear
10:58 AM 55.6 °F - 18.3 °F 23% 29.96 in 10.0 mi East 10.4 mph - N/A   Partly Cloudy
11:58 AM 57.6 °F - 16.7 °F 20% 29.95 in 10.0 mi SSW 10.4 mph - N/A   Clear
12:58 PM 59.2 °F - 18.1 °F 20% 29.94 in 10.0 mi SSE 12.7 mph 20.7 mph N/A   Partly Cloudy
1:49 PM 60.8 °F - 21.2 °F 22% 29.90 in 10.0 mi SSE 13.8 mph 21.9 mph N/A   Partly Cloudy
1:58 PM 60.8 °F - 21.2 °F 22% 29.90 in 10.0 mi SSE 11.5 mph 19.6 mph N/A   Partly Cloudy
2:09 PM 60.8 °F - 21.2 °F 22% 29.89 in 10.0 mi South 13.8 mph 17.3 mph N/A   Partly Cloudy
2:18 PM 60.8 °F - 19.4 °F 20% 29.88 in 10.0 mi SSE 15.0 mph 20.7 mph N/A   Clear
2:58 PM 62.2 °F - 19.4 °F 19% 29.85 in 10.0 mi SE 16.1 mph 23.0 mph N/A   Clear
3:50 PM 64.4 °F - 19.4 °F 18% 29.84 in 10.0 mi SE 17.3 mph 26.5 mph N/A   Clear
3:58 PM 63.1 °F - 18.9 °F 18% 29.86 in 10.0 mi SSE 20.7 mph 25.3 mph N/A   Clear
4:58 PM 63.1 °F - 17.6 °F 17% 29.84 in 10.0 mi SSE 12.7 mph 24.2 mph N/A   Clear
5:58 PM 61.5 °F - 17.6 °F 18% 29.86 in 10.0 mi SSE 15.0 mph 20.7 mph N/A   Clear
6:58 PM 59.4 °F - 17.1 °F 19% 29.88 in 10.0 mi SE 11.5 mph - N/A   Clear
7:58 PM 55.4 °F - 21.0 °F 26% 29.90 in 10.0 mi ESE 10.4 mph - N/A   Scattered Clouds
8:58 PM 52.3 °F - 23.4 °F 32% 29.91 in 10.0 mi SSE 8.1 mph - N/A   Scattered Clouds
9:58 PM 49.3 °F - 23.4 °F 36% 29.91 in 10.0 mi South 3.5 mph - N/A   Clear
10:58 PM 46.2 °F 40.8 °F 26.1 °F 45% 29.94 in 10.0 mi SE 11.5 mph - N/A   Clear
11:58 PM 43.9 °F 42.3 °F 35.8 °F 73% 29.95 in 10.0 mi South 3.5 mph - N/A   Clear